Back to catalog

FENGYUN 1C DEB

AlivePO
NORAD 37461·DEBRIS·🇨🇳 China

Launched May 10, 1999 from Taiyuan Satellite Launch Center

Loading…

Next Passes (next 24 hours)

TLE

FreshSource: Space-Track

Epoch: Sep 11, 2026, 09:02 UTC

1 37461U 99025EJF 26254.37681381  .00001228  00000-0  22035-2 0  9999
2 37461  99.8627 115.2257 0660697  88.2607 279.3993 12.79809033555214

Track FENGYUN 1C DEB in real time with AllMySat

Download on the App Store